Terminal Aerodrome Forecast
Issued by NWS Sioux Falls, SD

Home | Current Version | Previous Version | Text Only | Print | Product List | Glossary Off
Versions: 1 2 3 4 5 6 7 8 9 10 11 12 13 14 15 16 17

000
FTUS43 KFSD 132000 AAA
TAFHON
TAF AMD
KHON 132005Z 1320/1418 32012G18KT P6SM SCT045
     FM140030 35008KT P6SM SKC
     FM141500 35016G22KT P6SM SCT050=

USA.gov is the U.S. government's official web portal to all federal, state and local government web resources and services.